• In Czech Republic
  • List of Countries
  • For 7 days
  • Water Temperature
  • Satellite Maps
  • Weather Map
  • Weather Widgets
  • user-avatar
    Login

    Hourly Weather Goiania

    Today, 20 August, Monday

    Time Temperature Precipitation Wind Pressure Humidity
    00:00 +24°C° 0 mm 2 mps 703 mmHg 54%
    01:00 +24°C° 0 mm 2 mps 702 mmHg 55%
    02:00 +23°C° 0 mm 2 mps 702 mmHg 56%
    03:00 +23°C° 0 mm 2 mps 702 mmHg 57%
    04:00 +21°C° 0 mm 2 mps 702 mmHg 59%
    05:00 +21°C° 0 mm 2 mps 702 mmHg 61%
    06:00 +20°C° 0 mm 2 mps 702 mmHg 63%
    07:00 +22°C° 0 mm 3 mps 703 mmHg 58%
    08:00 +25°C° 0 mm 3 mps 704 mmHg 53%
    09:00 +26°C° 0 mm 4 mps 704 mmHg 48%
    10:00 +28°C° 0 mm 3 mps 704 mmHg 41%
    11:00 +30°C° 0 mm 3 mps 704 mmHg 34%
    12:00 +31°C° 0 mm 2 mps 704 mmHg 27%
    13:00 +32°C° 0 mm 2 mps 704 mmHg 26%
    14:00 +32°C° 0 mm 2 mps 703 mmHg 24%
    15:00 +34°C° 0 mm 2 mps 702 mmHg 23%
    16:00 +31°C° 0 mm 2 mps 702 mmHg 25%
    17:00 +30°C° 0 mm 2 mps 702 mmHg 27%
    18:00 +29°C° 0 mm 2 mps 702 mmHg 29%
    19:00 +27°C° 0 mm 2 mps 702 mmHg 31%
    20:00 +26°C° 0 mm 2 mps 702 mmHg 33%
    21:00 +25°C° 0 mm 2 mps 702 mmHg 35%
    22:00 +25°C° 0 mm 2 mps 703 mmHg 37%
    23:00 +25°C° 0 mm 2 mps 703 mmHg 39%

    Tomorrow, 21 August, Tuesday

    Time Temperature Precipitation Wind Pressure Humidity
    00:00 +24°C° 0 mm 3 mps 703 mmHg 40%
    01:00 +24°C° 0 mm 3 mps 703 mmHg 42%
    02:00 +22°C° 0 mm 3 mps 702 mmHg 43%
    03:00 +22°C° 0 mm 3 mps 702 mmHg 45%
    04:00 +22°C° 0 mm 3 mps 702 mmHg 45%
    05:00 +21°C° 0 mm 3 mps 702 mmHg 46%
    06:00 +21°C° 0 mm 3 mps 702 mmHg 46%
    07:00 +22°C° 0 mm 4 mps 703 mmHg 44%
    08:00 +25°C° 0 mm 4 mps 703 mmHg 42%
    09:00 +27°C° 0 mm 5 mps 704 mmHg 39%
    10:00 +28°C° 0 mm 4 mps 704 mmHg 35%
    11:00 +30°C° 0 mm 3 mps 704 mmHg 30%
    12:00 +32°C° 0 mm 2 mps 704 mmHg 25%
    13:00 +34°C° 0 mm 2 mps 703 mmHg 24%
    14:00 +34°C° 0 mm 2 mps 703 mmHg 23%
    15:00 +34°C° 0 mm 1 mps 702 mmHg 21%
    16:00 +32°C° 0 mm 1 mps 702 mmHg 24%
    17:00 +31°C° 0 mm 1 mps 701 mmHg 26%
    18:00 +29°C° 0 mm 2 mps 701 mmHg 28%
    19:00 +29°C° 0 mm 2 mps 702 mmHg 29%
    20:00 +28°C° 0 mm 2 mps 702 mmHg 31%
    21:00 +27°C° 0 mm 2 mps 703 mmHg 32%
    22:00 +27°C° 0 mm 2 mps 703 mmHg 35%
    23:00 +26°C° 0 mm 2 mps 703 mmHg 37%

    Day after tomorrow, 22 August, Wednesday

    Time Temperature Precipitation Wind Pressure Humidity
    00:00 +25°C° 0 mm 3 mps 703 mmHg 40%
    01:00 +25°C° 0 mm 3 mps 702 mmHg 42%
    02:00 +24°C° 0 mm 3 mps 702 mmHg 44%
    03:00 +22°C° 0 mm 3 mps 702 mmHg 46%
    04:00 +22°C° 0 mm 3 mps 702 mmHg 46%
    05:00 +22°C° 0 mm 3 mps 702 mmHg 47%
    06:00 +21°C° 0 mm 3 mps 702 mmHg 47%
    07:00 +23°C° 0 mm 4 mps 702 mmHg 44%
    08:00 +26°C° 0 mm 4 mps 703 mmHg 41%
    09:00 +27°C° 0 mm 5 mps 704 mmHg 38%
    10:00 +29°C° 0 mm 4 mps 704 mmHg 33%
    11:00 +31°C° 0 mm 3 mps 703 mmHg 29%
    12:00 +34°C° 0 mm 2 mps 703 mmHg 25%
    13:00 +34°C° 0 mm 2 mps 703 mmHg 25%
    14:00 +34°C° 0 mm 2 mps 702 mmHg 24%
    15:00 +34°C° 0 mm 2 mps 701 mmHg 24%
    16:00 +32°C° 0 mm 2 mps 700 mmHg 26%
    17:00 +30°C° 0 mm 2 mps 700 mmHg 28%
    18:00 +29°C° 0 mm 2 mps 700 mmHg 31%
    19:00 +28°C° 0 mm 2 mps 700 mmHg 33%
    20:00 +28°C° 0 mm 3 mps 701 mmHg 35%
    21:00 +27°C° 0 mm 3 mps 701 mmHg 37%
    22:00 +26°C° 0 mm 3 mps 701 mmHg 40%
    23:00 +26°C° 0 mm 3 mps 701 mmHg 42%

    23 August, Thursday

    Time Temperature Precipitation Wind Pressure Humidity
    00:00 +25°C° 0 mm 3 mps 701 mmHg 45%
    01:00 +24°C° 0 mm 3 mps 701 mmHg 47%
    02:00 +24°C° 0 mm 3 mps 700 mmHg 49%
    03:00 +22°C° 0 mm 3 mps 700 mmHg 51%
    04:00 +22°C° 0 mm 3 mps 700 mmHg 52%
    05:00 +22°C° 0 mm 3 mps 700 mmHg 54%
    06:00 +22°C° 0 mm 3 mps 700 mmHg 55%
    07:00 +23°C° 0 mm 4 mps 700 mmHg 51%
    08:00 +26°C° 0 mm 5 mps 701 mmHg 48%
    09:00 +27°C° 0 mm 5 mps 702 mmHg 44%
    10:00 +29°C° 0 mm 4 mps 702 mmHg 38%
    11:00 +32°C° 0 mm 4 mps 702 mmHg 33%
    12:00 +34°C° 0 mm 3 mps 702 mmHg 27%
    13:00 +34°C° 0 mm 2 mps 701 mmHg 26%
    14:00 +35°C° 0 mm 2 mps 700 mmHg 25%
    15:00 +34°C° 0 mm 1 mps 699 mmHg 24%
    16:00 +33°C° 0 mm 1 mps 699 mmHg 26%
    17:00 +31°C° 0 mm 1 mps 699 mmHg 28%
    18:00 +30°C° 0 mm 1 mps 699 mmHg 31%
    19:00 +29°C° 0 mm 2 mps 700 mmHg 33%
    20:00 +29°C° 0 mm 2 mps 700 mmHg 34%
    21:00 +28°C° 0 mm 2 mps 700 mmHg 36%
    22:00 +27°C° 0 mm 2 mps 700 mmHg 38%
    23:00 +27°C° 0 mm 3 mps 700 mmHg 40%

    24 August, Friday

    Time Temperature Precipitation Wind Pressure Humidity
    00:00 +26°C° 0 mm 3 mps 700 mmHg 43%
    01:00 +25°C° 0 mm 3 mps 700 mmHg 44%
    02:00 +25°C° 0 mm 3 mps 700 mmHg 45%
    03:00 +24°C° 0 mm 3 mps 700 mmHg 47%
    04:00 +24°C° 0 mm 3 mps 700 mmHg 47%
    05:00 +24°C° 0 mm 3 mps 700 mmHg 47%
    06:00 +23°C° 0 mm 4 mps 700 mmHg 48%
    07:00 +25°C° 0 mm 4 mps 701 mmHg 45%
    08:00 +26°C° 0 mm 5 mps 701 mmHg 43%
    09:00 +28°C° 0 mm 5 mps 702 mmHg 41%
    10:00 +30°C° 0 mm 4 mps 702 mmHg 37%
    11:00 +32°C° 0 mm 4 mps 702 mmHg 32%
    12:00 +34°C° 0 mm 3 mps 702 mmHg 28%
    13:00 +35°C° 0 mm 3 mps 701 mmHg 27%
    14:00 +35°C° 0 mm 2 mps 701 mmHg 26%
    15:00 +34°C° 0 mm 1 mps 700 mmHg 26%
    16:00 +33°C° 0 mm 1 mps 700 mmHg 28%
    17:00 +32°C° 0 mm 1 mps 700 mmHg 30%
    18:00 +31°C° 0 mm 1 mps 700 mmHg 32%
    19:00 +30°C° 0 mm 2 mps 700 mmHg 34%
    20:00 +28°C° 0 mm 2 mps 701 mmHg 37%
    21:00 +27°C° 0 mm 2 mps 701 mmHg 39%
    22:00 +27°C° 0 mm 2 mps 701 mmHg 40%
    23:00 +26°C° 0 mm 3 mps 701 mmHg 42%

    25 August, Saturday

    Time Temperature Precipitation Wind Pressure Humidity
    00:00 +26°C° 0 mm 3 mps 701 mmHg 44%
    01:00 +25°C° 0 mm 3 mps 700 mmHg 45%
    02:00 +25°C° 0 mm 2 mps 700 mmHg 47%
    03:00 +24°C° 0 mm 2 mps 700 mmHg 48%
    04:00 +24°C° 0 mm 2 mps 700 mmHg 48%
    05:00 +24°C° 0 mm 2 mps 700 mmHg 49%
    06:00 +24°C° 0 mm 2 mps 700 mmHg 49%
    07:00 +25°C° 0 mm 2 mps 701 mmHg 45%
    08:00 +27°C° 0 mm 2 mps 702 mmHg 41%
    09:00 +28°C° 0 mm 2 mps 703 mmHg 37%
    10:00 +30°C° 0 mm 2 mps 703 mmHg 34%
    11:00 +32°C° 0 mm 1 mps 703 mmHg 31%
    12:00 +33°C° 0 mm 1 mps 703 mmHg 28%
    13:00 +34°C° 0 mm 1 mps 702 mmHg 27%
    14:00 +34°C° 0 mm 1 mps 701 mmHg 26%
    15:00 +36°C° 0 mm 2 mps 701 mmHg 25%
    16:00 +34°C° 0 mm 2 mps 701 mmHg 28%
    17:00 +32°C° 0 mm 2 mps 700 mmHg 30%
    18:00 +31°C° 0 mm 2 mps 700 mmHg 32%
    19:00 +30°C° 0 mm 1 mps 701 mmHg 35%
    20:00 +29°C° 0 mm 1 mps 701 mmHg 39%
    21:00 +28°C° 0 mm 1 mps 701 mmHg 42%
    22:00 +27°C° 0.1 mm 1 mps 701 mmHg 45%
    23:00 +26°C° 0.1 mm 1 mps 701 mmHg 48%
    Show more